O3B FM3 (40079 NORAD) Tracking and Keplerian Element Data

This shows tracking and keplerian element data for the satellite.

Feedback or suggestion? Click here.




ElementValue
Catalog40079
NameO3B FM3
Epoch Orbit18810
Epoch Day34.57862099
Epoch Year2025
RAAN359.7172
Inclination0.0445
Eccentricity0.0005022
Argument of Perigee302.8141
Mean Anonmoly57.4156
Mean Motion5.00114773
Decay Rate-1.3E-07
L11 40079U 14038A 25034.57862099 -.00000013 00000+0 00000+0 0 9999
L22 40079 0.0445 359.7172 0005022 302.8141 57.4156 5.00114773188101



Live tracking and technical data element details for O3B FM3 (NORAD 40079). O3B FM3 can be tracked NOW for your location showing map with azimuth and elevation plus other details from your city location.







IsCatalogInMostPopularTable: catalog: 40079, numindb: 530
Update: records affected: 1



GetName: 40079 O3B FM3

Hit Count: updated at: Thu, 22 May 2025 03:17:06 GMT